Date String (YYYY-MM-DD hh:mm:ss) UTC,Instrument flags,Ambient pressure (hPa),Sample flow (lpm),Bypass flow (lpm),Sample temperature (°C),Ambient temperature (°C),ASC tube jacket temperature (°C),LED temperature (°C),Box temperature (°C),Sample RH (%),Span deviation,Mass concentration (μg/m³),Mass concentration (μg/m³),Mass concentration (μg/m³)
DateTimeUTC,F1_M11,P_M11,Q1_M11,Q2_M11,T1_M11,T2_M11,T3_M11,T4_M11,T5_M11,U1_M11,ZSPAN_M11,X0_M11,X2_M11,X1_M11
2023-02-20 12:00:00,,0814.9,5.00,0.00,22.1,20.3,00.0,31.0,23.8,10.1,0000.0,0004.57,0001.30,0000.75
2023-02-20 12:01:00,,0814.9,5.00,0.00,22.1,20.3,00.0,31.0,23.8,10.1,0000.0,0004.07,0001.29,0000.74
2023-02-20 12:02:00,,0814.9,5.01,0.00,22.0,20.2,00.0,31.0,23.7,10.2,0000.0,0003.72,0001.29,0000.73
2023-02-20 12:03:00,,0814.8,5.00,0.00,22.0,20.2,00.0,31.0,23.7,10.1,0000.0,0003.94,0001.28,0000.72
2023-02-20 12:04:00,,0815.1,5.00,0.00,22.0,20.2,00.0,31.0,23.7,10.1,0000.0,0004.22,0001.27,0000.70
2023-02-20 12:05:00,,0815.0,5.00,0.00,22.0,20.3,00.0,31.0,23.7,10.2,0000.0,0003.95,0001.22,0000.68
2023-02-20 12:06:00,,0815.1,5.01,0.00,22.0,20.3,00.0,31.0,23.7,10.2,0000.0,0003.50,0001.22,0000.66
2023-02-20 12:07:00,,0815.0,5.02,0.00,22.0,20.9,00.0,30.9,23.9,10.2,0000.0,0003.55,0001.26,0000.66
2023-02-20 12:08:00,,0815.1,4.99,0.00,22.1,22.2,00.0,30.9,24.1,10.2,0000.0,0003.66,0001.29,0000.66
2023-02-20 12:09:00,,0815.3,5.02,0.00,22.3,23.1,00.0,30.9,24.4,10.1,0000.0,0003.86,0001.38,0000.68
2023-02-20 12:10:00,,0815.0,5.00,0.00,22.4,22.8,00.0,31.0,24.4,09.9,0000.0,0004.11,0001.45,0000.69
2023-02-20 12:11:00,,0815.0,4.99,0.00,22.4,22.4,00.0,31.0,24.3,09.9,0000.0,0004.08,0001.46,0000.71
2023-02-20 12:12:00,,0814.9,4.99,0.00,22.4,22.0,00.0,31.1,24.3,09.9,0000.0,0004.15,0001.49,0000.72
2023-02-20 12:13:00,,0814.9,5.02,0.00,22.4,21.7,00.0,31.1,24.3,09.9,0000.0,0003.91,0001.49,0000.75
2023-02-20 12:14:00,,0814.9,5.01,0.00,22.4,21.5,00.0,31.2,24.2,09.9,0000.0,0003.73,0001.51,0000.76
2023-02-20 12:15:00,,0815.1,4.99,0.00,22.4,21.3,00.0,31.2,24.2,10.1,0000.0,0003.40,0001.52,0000.79
2023-02-20 12:16:00,,0815.0,5.01,0.00,22.4,21.2,00.0,31.2,24.2,10.1,0000.0,0003.51,0001.58,0000.81
2023-02-20 12:17:00,,0814.8,4.99,0.00,22.4,21.1,00.0,31.2,24.2,10.2,0000.0,0003.65,0001.62,0000.83
2023-02-20 12:18:00,,0814.7,5.00,0.00,22.4,21.0,00.0,31.2,24.2,10.1,0000.0,0005.34,0001.66,0000.83
2023-02-20 12:19:00,,0814.9,4.98,0.00,22.4,20.9,00.0,31.2,24.1,10.0,0000.0,0005.32,0001.62,0000.83
2023-02-20 12:20:00,,0814.9,5.01,0.00,22.4,20.8,00.0,31.2,24.1,10.2,0000.0,0005.19,0001.58,0000.81
2023-02-20 12:21:00,,0815.1,5.00,0.00,22.3,20.7,00.0,31.2,24.1,10.2,0000.0,0005.30,0001.54,0000.80
2023-02-20 12:22:00,,0814.8,5.00,0.00,22.3,20.6,00.0,31.2,24.1,10.1,0000.0,0005.59,0001.53,0000.80
2023-02-20 12:23:00,,0815.0,5.00,0.00,22.3,20.6,00.0,31.2,24.0,10.0,0000.0,0005.88,0001.51,0000.80
2023-02-20 12:24:00,,0814.7,5.00,0.00,22.3,20.5,00.0,31.2,24.0,10.1,0000.0,0006.22,0001.49,0000.78
2023-02-20 12:25:00,,0814.7,5.00,0.00,22.3,20.5,00.0,31.2,24.0,10.0,0000.0,0007.04,0001.49,0000.77
2023-02-20 12:26:00,,0814.5,5.00,0.00,22.3,20.5,00.0,31.2,24.0,10.1,0000.0,0007.39,0001.50,0000.75
2023-02-20 12:27:00,,0814.8,4.99,0.00,22.2,20.4,00.0,31.2,23.9,10.1,0000.0,0007.30,0001.43,0000.74
2023-02-20 12:28:00,,0815.0,5.00,0.00,22.2,20.4,00.0,31.2,23.9,10.1,0000.0,0007.22,0001.39,0000.71
2023-02-20 12:29:00,,0814.8,5.02,0.00,22.2,20.4,00.0,31.2,23.9,10.2,0000.0,0006.42,0001.31,0000.69
2023-02-20 12:30:00,,0814.5,5.00,0.00,22.2,20.4,00.0,31.1,23.9,10.5,0000.0,0005.70,0001.29,0000.69
2023-02-20 12:31:00,,0814.5,5.00,0.00,22.2,20.4,00.0,31.1,23.9,10.3,0000.0,0005.89,0001.31,0000.69
2023-02-20 12:32:00,,0814.2,5.01,0.00,22.1,20.3,00.0,31.1,23.8,10.3,0000.0,0005.81,0001.31,0000.68
2023-02-20 12:33:00,,0814.1,4.99,0.00,22.1,20.2,00.0,31.1,23.7,10.2,0000.0,0005.72,0001.29,0000.68
2023-02-20 12:34:00,,0814.7,4.99,0.00,22.0,20.1,00.0,31.1,23.6,10.2,0000.0,0005.38,0001.25,0000.67
2023-02-20 12:35:00,,0814.6,5.01,0.00,22.0,20.4,00.0,31.0,23.7,10.4,0000.0,0005.41,0001.35,0000.67
2023-02-20 12:36:00,,0814.8,4.99,0.00,22.1,21.6,00.0,30.9,24.0,10.2,0000.0,0004.99,0001.36,0000.66
2023-02-20 12:37:00,,0814.5,5.01,0.00,22.2,22.9,00.0,30.9,24.3,10.1,0000.0,0004.43,0001.31,0000.65
2023-02-20 12:38:00,,0814.3,5.03,0.00,22.4,22.9,00.0,31.0,24.4,10.1,0000.0,0004.56,0001.32,0000.65
2023-02-20 12:39:00,,0814.4,5.00,0.00,22.4,22.3,00.0,31.1,24.3,10.1,0000.0,0004.65,0001.34,0000.65
2023-02-20 12:40:00,,0814.6,4.99,0.00,22.4,21.9,00.0,31.1,24.2,10.3,0000.0,0004.41,0001.34,0000.65
2023-02-20 12:41:00,,0814.4,5.01,0.00,22.4,21.5,00.0,31.1,24.2,10.3,0000.0,0004.18,0001.36,0000.65
2023-02-20 12:42:00,,0814.1,4.99,0.00,22.3,21.2,00.0,31.2,24.1,10.1,0000.0,0004.55,0001.32,0000.65
2023-02-20 12:43:00,,0814.0,5.00,0.00,22.3,20.9,00.0,31.2,24.0,09.9,0000.0,0004.64,0001.33,0000.65
2023-02-20 12:44:00,,0814.0,4.99,0.00,22.3,20.7,00.0,31.2,24.0,09.9,0000.0,0004.28,0001.31,0000.64
2023-02-20 12:45:00,,0814.1,5.00,0.00,22.2,20.5,00.0,31.2,23.9,10.1,0000.0,0004.41,0001.33,0000.64
2023-02-20 12:46:00,,0814.0,4.99,0.00,22.2,20.4,00.0,31.2,23.9,10.5,0000.0,0004.22,0001.26,0000.64
2023-02-20 12:47:00,,0814.1,4.99,0.00,22.2,20.2,00.0,31.2,23.8,10.6,0000.0,0006.22,0001.24,0000.64
2023-02-20 12:48:00,,0814.0,5.00,0.00,22.1,20.2,00.0,31.2,23.7,10.3,0000.0,0006.34,0001.27,0000.65
2023-02-20 12:49:00,,0814.2,5.00,0.00,22.1,20.1,00.0,31.1,23.7,10.0,0000.0,0006.32,0001.28,0000.65
2023-02-20 12:50:00,,0814.0,5.00,0.00,22.1,20.2,00.0,31.1,23.7,09.9,0000.0,0006.31,0001.28,0000.65
2023-02-20 12:51:00,,0814.0,4.99,0.00,22.0,20.2,00.0,31.1,23.7,10.0,0000.0,0006.74,0001.30,0000.66
2023-02-20 12:52:00,,0814.0,5.01,0.00,22.0,20.2,00.0,31.1,23.7,10.0,0000.0,0007.73,0001.33,0000.65
2023-02-20 12:53:00,,0813.8,5.02,0.00,22.0,20.2,00.0,31.1,23.7,10.1,0000.0,0007.87,0001.32,0000.65
2023-02-20 12:54:00,,0814.0,5.00,0.00,22.0,20.2,00.0,31.0,23.7,10.1,0000.0,0007.71,0001.31,0000.65
2023-02-20 12:55:00,,0814.2,4.99,0.00,22.0,20.2,00.0,31.0,23.7,10.1,0000.0,0007.72,0001.35,0000.66
2023-02-20 12:56:00,,0814.0,5.01,0.00,22.0,20.2,00.0,31.0,23.7,10.0,0000.0,0007.60,0001.32,0000.66
2023-02-20 12:57:00,,0814.0,5.00,0.00,22.0,20.1,00.0,31.0,23.7,10.1,0000.0,0007.20,0001.29,0000.66
2023-02-20 12:58:00,,0814.0,4.99,0.00,22.0,20.1,00.0,31.0,23.6,10.2,0000.0,0005.30,0001.32,0000.66
2023-02-20 12:59:00,,0814.1,5.00,0.00,21.9,20.2,00.0,31.0,23.6,10.1,0000.0,0005.19,0001.29,0000.65
